Time,TemperatureF,DewpointF,PressureIn,WindDirection,WindDirectionDegrees,WindSpeedMPH,WindSpeedGustMPH,Humidity,HourlyPrecipIn,Conditions,Clouds,dailyrainin,SoftwareType,DateUTC
2013-02-25 00:03:00,37.1,27.9,30.20,ENE,68,0.2,0.2,69,0.00,,,0.00,WUHU216HW,2013-02-25 08:03:00,
2013-02-25 00:09:00,37.1,27.9,30.20,ENE,68,0.0,0.2,69,0.00,,,0.00,WUHU216HW,2013-02-25 08:09:00,
2013-02-25 00:14:00,36.9,27.7,30.20,ENE,68,0.0,0.0,69,0.00,,,0.00,WUHU216HW,2013-02-25 08:14:00,
2013-02-25 00:19:00,36.7,27.6,30.21,ENE,68,0.2,0.2,69,0.00,,,0.00,WUHU216HW,2013-02-25 08:19:00,
2013-02-25 00:24:00,36.5,27.7,30.21,ENE,68,0.0,0.2,70,0.00,,,0.00,WUHU216HW,2013-02-25 08:24:00,
2013-02-25 00:29:00,36.4,27.9,30.21,ENE,68,0.0,0.2,71,0.00,,,0.00,WUHU216HW,2013-02-25 08:29:00,
2013-02-25 00:34:00,36.4,27.9,30.21,ENE,68,0.2,0.4,71,0.00,,,0.00,WUHU216HW,2013-02-25 08:34:00,
2013-02-25 00:39:00,36.4,27.9,30.21,ENE,68,0.0,0.4,71,0.00,,,0.00,WUHU216HW,2013-02-25 08:39:00,
2013-02-25 00:44:00,36.2,27.7,30.21,ENE,68,0.0,0.4,71,0.00,,,0.00,WUHU216HW,2013-02-25 08:44:00,
2013-02-25 00:49:00,36.0,27.6,30.21,ENE,68,0.0,0.2,71,0.00,,,0.00,WUHU216HW,2013-02-25 08:49:00,
2013-02-25 00:54:00,36.0,27.6,30.21,ENE,68,0.2,0.4,71,0.00,,,0.00,WUHU216HW,2013-02-25 08:54:00,
2013-02-25 00:59:00,36.0,27.6,30.22,ENE,68,0.0,0.4,71,0.00,,,0.00,WUHU216HW,2013-02-25 08:59:00,
2013-02-25 01:04:00,35.8,27.4,30.21,ENE,68,0.0,0.0,71,0.00,,,0.00,WUHU216HW,2013-02-25 09:04:00,
2013-02-25 01:09:00,35.6,27.5,30.22,ENE,68,0.0,0.0,72,0.00,,,0.00,WUHU216HW,2013-02-25 09:09:00,
2013-02-25 01:14:00,35.6,27.5,30.21,ENE,68,0.0,0.0,72,0.00,,,0.00,WUHU216HW,2013-02-25 09:14:00,
2013-02-25 01:20:00,35.6,27.5,30.22,East,90,0.4,0.4,72,0.00,,,0.00,WUHU216HW,2013-02-25 09:20:00,
2013-02-25 01:25:00,35.5,27.6,30.21,ENE,68,0.2,0.4,73,0.00,,,0.00,WUHU216HW,2013-02-25 09:25:00,
2013-02-25 01:30:00,35.5,27.6,30.22,East,90,0.0,0.4,73,0.00,,,0.00,WUHU216HW,2013-02-25 09:30:00,
2013-02-25 01:35:00,35.3,27.5,30.22,East,90,0.0,0.4,73,0.00,,,0.00,WUHU216HW,2013-02-25 09:35:00,
2013-02-25 01:40:00,35.3,27.5,30.22,East,90,0.0,0.2,73,0.00,,,0.00,WUHU216HW,2013-02-25 09:40:00,
2013-02-25 01:45:00,35.1,27.3,30.22,East,90,0.0,0.2,73,0.00,,,0.00,WUHU216HW,2013-02-25 09:45:00,
2013-02-25 01:50:00,34.9,27.1,30.21,East,90,0.2,0.4,73,0.00,,,0.00,WUHU216HW,2013-02-25 09:50:00,
2013-02-25 01:55:00,34.9,27.1,30.21,East,90,0.0,0.4,73,0.00,,,0.00,WUHU216HW,2013-02-25 09:55:00,
2013-02-25 02:00:00,34.9,27.1,30.21,East,90,0.2,0.2,73,0.00,,,0.00,WUHU216HW,2013-02-25 10:00:00,
2013-02-25 02:05:00,34.9,27.1,30.21,East,90,0.0,0.2,73,0.00,,,0.00,WUHU216HW,2013-02-25 10:05:00,
2013-02-25 02:10:00,34.9,27.1,30.21,East,90,0.0,0.0,73,0.00,,,0.00,WUHU216HW,2013-02-25 10:10:00,
2013-02-25 02:15:00,34.7,26.9,30.21,East,90,0.2,0.2,73,0.00,,,0.00,WUHU216HW,2013-02-25 10:15:00,
2013-02-25 02:20:00,34.6,26.7,30.21,East,90,0.0,0.2,73,0.00,,,0.00,WUHU216HW,2013-02-25 10:20:00,
2013-02-25 02:26:00,34.6,26.7,30.21,East,90,0.0,0.2,73,0.00,,,0.00,WUHU216HW,2013-02-25 10:26:00,
2013-02-25 02:31:00,34.4,26.6,30.21,ENE,68,0.2,0.4,73,0.00,,,0.00,WUHU216HW,2013-02-25 10:31:00,
2013-02-25 02:36:00,34.4,26.8,30.21,ENE,68,0.2,0.4,74,0.00,,,0.00,WUHU216HW,2013-02-25 10:36:00,
2013-02-25 02:41:00,34.4,26.8,30.21,ENE,68,0.4,0.4,74,0.00,,,0.00,WUHU216HW,2013-02-25 10:41:00,
2013-02-25 02:46:00,34.4,26.8,30.21,East,90,0.2,0.4,74,0.00,,,0.00,WUHU216HW,2013-02-25 10:46:00,
2013-02-25 02:51:00,34.2,26.6,30.21,East,90,0.0,0.4,74,0.00,,,0.00,WUHU216HW,2013-02-25 10:51:00,
2013-02-25 02:56:00,34.2,26.6,30.20,East,90,0.0,0.4,74,0.00,,,0.00,WUHU216HW,2013-02-25 10:56:00,
2013-02-25 03:01:00,34.2,26.6,30.20,East,90,0.0,0.2,74,0.00,,,0.00,WUHU216HW,2013-02-25 11:01:00,
2013-02-25 03:06:00,34.0,26.5,30.21,East,90,0.0,0.0,74,0.00,,,0.00,WUHU216HW,2013-02-25 11:06:00,
2013-02-25 03:11:00,33.8,26.6,30.20,East,90,0.0,0.0,75,0.00,,,0.00,WUHU216HW,2013-02-25 11:11:00,
2013-02-25 03:16:00,33.7,26.5,30.20,East,90,0.0,0.2,75,0.00,,,0.00,WUHU216HW,2013-02-25 11:16:00,
2013-02-25 03:21:00,33.5,26.3,30.20,East,90,0.0,0.2,75,0.00,,,0.00,WUHU216HW,2013-02-25 11:21:00,
2013-02-25 03:26:00,33.5,26.3,30.20,East,90,0.0,0.2,75,0.00,,,0.00,WUHU216HW,2013-02-25 11:26:00,
2013-02-25 03:31:00,33.5,26.3,30.21,East,90,0.0,0.0,75,0.00,,,0.00,WUHU216HW,2013-02-25 11:31:00,
2013-02-25 03:36:00,33.3,26.5,30.21,East,90,0.2,0.2,76,0.00,,,0.00,WUHU216HW,2013-02-25 11:36:00,
2013-02-25 03:41:00,33.3,26.5,30.21,East,90,0.0,0.2,76,0.00,,,0.00,WUHU216HW,2013-02-25 11:41:00,
2013-02-25 03:46:00,33.3,26.5,30.21,East,90,0.2,0.2,76,0.00,,,0.00,WUHU216HW,2013-02-25 11:46:00,
2013-02-25 03:51:00,33.1,26.3,30.21,East,90,0.4,0.4,76,0.00,,,0.00,WUHU216HW,2013-02-25 11:51:00,
2013-02-25 03:56:00,33.1,26.6,30.21,ENE,68,0.0,0.4,77,0.00,,,0.00,WUHU216HW,2013-02-25 11:56:00,
2013-02-25 04:02:00,33.1,26.3,30.21,ENE,68,0.0,0.0,76,0.00,,,0.00,WUHU216HW,2013-02-25 12:02:00,
2013-02-25 04:07:00,33.1,26.3,30.21,ENE,68,0.0,0.0,76,0.00,,,0.00,WUHU216HW,2013-02-25 12:07:00,
2013-02-25 04:12:00,33.1,26.3,30.21,East,90,0.4,0.4,76,0.00,,,0.00,WUHU216HW,2013-02-25 12:12:00,
2013-02-25 04:17:00,33.1,26.6,30.21,East,90,0.2,0.4,77,0.00,,,0.00,WUHU216HW,2013-02-25 12:17:00,
2013-02-25 04:22:00,33.1,26.6,30.21,ESE,113,0.2,0.4,77,0.00,,,0.00,WUHU216HW,2013-02-25 12:22:00,
2013-02-25 04:27:00,33.1,27.0,30.21,ESE,113,0.0,0.4,78,0.00,,,0.00,WUHU216HW,2013-02-25 12:27:00,
2013-02-25 04:32:00,33.1,27.0,30.21,East,90,0.2,0.2,78,0.00,,,0.00,WUHU216HW,2013-02-25 12:32:00,
2013-02-25 04:37:00,33.1,26.6,30.20,East,90,0.2,0.4,77,0.00,,,0.00,WUHU216HW,2013-02-25 12:37:00,
2013-02-25 04:42:00,33.1,26.6,30.21,East,90,0.0,0.4,77,0.00,,,0.00,WUHU216HW,2013-02-25 12:42:00,
2013-02-25 04:47:00,32.9,26.8,30.21,East,90,0.0,0.2,78,0.00,,,0.00,WUHU216HW,2013-02-25 12:47:00,
2013-02-25 04:52:00,32.8,26.3,30.21,East,90,0.0,0.2,77,0.00,,,0.00,WUHU216HW,2013-02-25 12:52:00,
2013-02-25 04:57:00,32.8,26.3,30.21,East,90,0.0,0.0,77,0.00,,,0.00,WUHU216HW,2013-02-25 12:57:00,
2013-02-25 05:03:00,32.8,26.3,30.21,ENE,68,0.0,0.2,77,0.00,,,0.00,WUHU216HW,2013-02-25 13:03:00,
2013-02-25 05:08:00,32.6,26.2,30.21,ENE,68,0.2,0.2,77,0.00,,,0.00,WUHU216HW,2013-02-25 13:08:00,
2013-02-25 05:13:00,32.4,26.0,30.21,NNW,338,0.0,0.2,77,0.00,,,0.00,WUHU216HW,2013-02-25 13:13:00,
2013-02-25 05:18:00,32.4,26.3,30.21,NNW,338,0.0,0.0,78,0.00,,,0.00,WUHU216HW,2013-02-25 13:18:00,
2013-02-25 05:23:00,32.4,26.3,30.21,East,90,0.2,0.4,78,0.00,,,0.00,WUHU216HW,2013-02-25 13:23:00,
2013-02-25 05:28:00,32.2,26.2,30.21,ENE,68,0.2,0.4,78,0.00,,,0.00,WUHU216HW,2013-02-25 13:28:00,
2013-02-25 05:33:00,32.2,26.2,30.21,ENE,68,0.0,0.4,78,0.00,,,0.00,WUHU216HW,2013-02-25 13:33:00,
2013-02-25 05:39:00,32.2,26.2,30.21,NE,45,0.0,0.2,78,0.00,,,0.00,WUHU216HW,2013-02-25 13:39:00,
2013-02-25 05:44:00,32.2,26.5,30.21,North,0,0.2,0.2,79,0.00,,,0.00,WUHU216HW,2013-02-25 13:44:00,
2013-02-25 05:49:00,32.0,26.3,30.21,East,90,0.2,0.4,79,0.00,,,0.00,WUHU216HW,2013-02-25 13:49:00,
2013-02-25 05:54:00,32.0,26.3,30.21,NNE,23,0.2,0.7,79,0.00,,,0.00,WUHU216HW,2013-02-25 13:54:00,
2013-02-25 05:59:00,32.0,26.6,30.21,NNE,23,0.0,0.7,80,0.00,,,0.00,WUHU216HW,2013-02-25 13:59:00,
2013-02-25 06:04:00,32.0,26.0,30.21,NE,45,0.0,0.2,78,0.00,,,0.00,WUHU216HW,2013-02-25 14:04:00,
2013-02-25 06:09:00,32.0,26.6,30.21,NE,45,0.2,0.2,80,0.00,,,0.00,WUHU216HW,2013-02-25 14:09:00,
2013-02-25 06:14:00,32.0,26.6,30.21,West,270,0.2,0.2,80,0.00,,,0.00,WUHU216HW,2013-02-25 14:14:00,
2013-02-25 06:19:00,32.0,26.3,30.21,ENE,68,0.4,0.4,79,0.00,,,0.00,WUHU216HW,2013-02-25 14:19:00,
2013-02-25 06:24:00,32.0,26.3,30.21,NE,45,0.4,0.7,79,0.00,,,0.00,WUHU216HW,2013-02-25 14:24:00,
2013-02-25 06:29:00,32.0,26.3,30.21,NE,45,0.2,0.9,79,0.00,,,0.00,WUHU216HW,2013-02-25 14:29:00,
2013-02-25 06:35:00,31.9,26.1,30.20,NE,45,0.0,0.9,79,0.00,,,0.00,WUHU216HW,2013-02-25 14:35:00,
2013-02-25 06:40:00,32.0,26.3,30.21,ESE,113,0.0,0.4,79,0.00,,,0.00,WUHU216HW,2013-02-25 14:40:00,
2013-02-25 06:45:00,31.9,26.1,30.21,ESE,113,0.0,0.4,79,0.00,,,0.00,WUHU216HW,2013-02-25 14:45:00,
2013-02-25 06:50:00,31.9,26.1,30.21,NE,45,0.2,0.4,79,0.00,,,0.00,WUHU216HW,2013-02-25 14:50:00,
2013-02-25 06:55:00,31.9,26.5,30.21,WSW,248,0.4,0.4,80,0.00,,,0.00,WUHU216HW,2013-02-25 14:55:00,
2013-02-25 07:00:00,31.9,26.5,30.21,WSW,248,0.0,0.4,80,0.00,,,0.00,WUHU216HW,2013-02-25 15:00:00,
2013-02-25 07:05:00,32.0,26.6,30.22,NNW,338,0.0,0.2,80,0.00,,,0.00,WUHU216HW,2013-02-25 15:05:00,
2013-02-25 07:10:00,32.0,26.6,30.22,SSE,158,0.2,0.2,80,0.00,,,0.00,WUHU216HW,2013-02-25 15:10:00,
2013-02-25 07:15:00,32.0,26.9,30.22,East,90,0.4,0.4,81,0.00,,,0.00,WUHU216HW,2013-02-25 15:15:00,
2013-02-25 07:20:00,32.2,27.4,30.22,East,90,0.4,0.4,82,0.00,,,0.00,WUHU216HW,2013-02-25 15:20:00,
2013-02-25 07:25:00,32.4,27.5,30.22,East,90,0.0,0.4,82,0.00,,,0.00,WUHU216HW,2013-02-25 15:25:00,
2013-02-25 07:30:00,32.8,27.5,30.23,East,90,0.0,0.4,81,0.00,,,0.00,WUHU216HW,2013-02-25 15:30:00,
2013-02-25 07:35:00,32.8,27.9,30.23,East,90,0.0,0.0,82,0.00,,,0.00,WUHU216HW,2013-02-25 15:35:00,
2013-02-25 07:40:00,33.3,28.1,30.23,East,90,0.7,0.7,81,0.00,,,0.00,WUHU216HW,2013-02-25 15:40:00,
2013-02-25 07:46:00,33.7,28.4,30.23,SE,135,0.4,0.7,81,0.00,,,0.00,WUHU216HW,2013-02-25 15:46:00,
2013-02-25 07:51:00,34.2,29.2,30.23,South,180,0.2,0.7,82,0.00,,,0.00,WUHU216HW,2013-02-25 15:51:00,
2013-02-25 07:56:00,34.9,29.6,30.23,South,180,0.4,0.4,81,0.00,,,0.00,WUHU216HW,2013-02-25 15:56:00,
2013-02-25 08:01:00,37.1,31.5,30.23,ESE,113,0.9,0.9,80,0.00,,,0.00,WUHU216HW,2013-02-25 16:01:00,
2013-02-25 08:06:00,38.3,32.1,30.23,ESE,113,0.7,0.9,78,0.00,,,0.00,WUHU216HW,2013-02-25 16:06:00,
2013-02-25 08:11:00,39.4,32.8,30.23,South,180,0.9,1.1,77,0.00,,,0.00,WUHU216HW,2013-02-25 16:11:00,
2013-02-25 08:16:00,42.3,35.3,30.23,North,0,0.0,1.1,76,0.00,,,0.00,WUHU216HW,2013-02-25 16:16:00,
2013-02-25 08:21:00,45.0,35.8,30.22,East,90,0.7,1.1,70,0.00,,,0.00,WUHU216HW,2013-02-25 16:21:00,
2013-02-25 08:26:00,47.0,35.4,30.22,South,180,0.2,0.9,64,0.00,,,0.00,WUHU216HW,2013-02-25 16:26:00,
2013-02-25 08:31:00,48.2,36.3,30.22,South,180,0.7,0.9,63,0.00,,,0.00,WUHU216HW,2013-02-25 16:31:00,
2013-02-25 08:36:00,49.5,36.6,30.22,SSE,158,2.2,2.2,61,0.00,,,0.00,WUHU216HW,2013-02-25 16:36:00,
2013-02-25 08:41:00,50.2,36.9,30.22,SSE,158,2.0,2.2,60,0.00,,,0.00,WUHU216HW,2013-02-25 16:41:00,
2013-02-25 08:46:00,50.4,36.2,30.22,SSE,158,4.0,4.0,58,0.00,,,0.00,WUHU216HW,2013-02-25 16:46:00,
2013-02-25 08:51:00,50.4,36.2,30.22,SSE,158,1.1,4.0,58,0.00,,,0.00,WUHU216HW,2013-02-25 16:51:00,
2013-02-25 08:56:00,50.9,36.2,30.22,SSW,203,3.4,3.6,57,0.00,,,0.00,WUHU216HW,2013-02-25 16:56:00,
2013-02-25 09:02:00,50.4,35.7,30.22,SSE,158,2.0,4.5,57,0.00,,,0.00,WUHU216HW,2013-02-25 17:02:00,
2013-02-25 09:07:00,49.3,35.7,30.22,South,180,0.4,5.1,59,0.00,,,0.00,WUHU216HW,2013-02-25 17:07:00,
2013-02-25 09:12:00,49.0,36.1,30.22,SE,135,2.0,5.1,61,0.00,,,0.00,WUHU216HW,2013-02-25 17:12:00,
2013-02-25 09:17:00,49.0,36.6,30.22,SSE,158,0.9,3.4,62,0.00,,,0.00,WUHU216HW,2013-02-25 17:17:00,
2013-02-25 09:22:00,49.3,36.8,30.21,East,90,0.4,3.4,62,0.00,,,0.00,WUHU216HW,2013-02-25 17:22:00,
2013-02-25 09:27:00,50.0,37.5,30.21,SE,135,1.1,1.3,62,0.00,,,0.00,WUHU216HW,2013-02-25 17:27:00,
2013-02-25 09:32:00,50.8,37.8,30.21,ESE,113,1.8,3.4,61,0.00,,,0.00,WUHU216HW,2013-02-25 17:32:00,
2013-02-25 09:37:00,51.3,37.9,30.21,SSE,158,1.1,3.4,60,0.00,,,0.00,WUHU216HW,2013-02-25 17:37:00,
2013-02-25 09:42:00,51.8,37.9,30.21,SE,135,2.9,3.1,59,0.00,,,0.00,WUHU216HW,2013-02-25 17:42:00,
2013-02-25 09:47:00,52.0,37.6,30.21,SSE,158,0.4,2.9,58,0.00,,,0.00,WUHU216HW,2013-02-25 17:47:00,
2013-02-25 09:52:00,52.0,37.6,30.21,SSE,158,1.6,2.7,58,0.00,,,0.00,WUHU216HW,2013-02-25 17:52:00,
2013-02-25 09:57:00,52.2,38.7,30.21,East,90,2.0,2.2,60,0.00,,,0.00,WUHU216HW,2013-02-25 17:57:00,
2013-02-25 10:02:00,52.4,38.4,30.21,ENE,68,1.6,2.2,59,0.00,,,0.00,WUHU216HW,2013-02-25 18:02:00,
2013-02-25 10:07:00,52.6,38.6,30.21,East,90,1.6,2.7,59,0.00,,,0.00,WUHU216HW,2013-02-25 18:07:00,
2013-02-25 10:12:00,52.7,38.8,30.20,SW,225,1.8,2.7,59,0.00,,,0.00,WUHU216HW,2013-02-25 18:12:00,
2013-02-25 10:17:00,52.9,38.5,30.20,SSE,158,1.3,2.5,58,0.00,,,0.00,WUHU216HW,2013-02-25 18:17:00,
2013-02-25 10:23:00,53.5,39.1,30.20,SSW,203,0.9,2.7,58,0.00,,,0.00,WUHU216HW,2013-02-25 18:23:00,
2013-02-25 10:28:00,53.6,39.3,30.20,South,180,2.5,2.7,58,0.00,,,0.00,WUHU216HW,2013-02-25 18:28:00,
2013-02-25 10:33:00,54.4,39.4,30.20,SSW,203,0.0,2.5,57,0.00,,,0.00,WUHU216HW,2013-02-25 18:33:00,
2013-02-25 10:38:00,54.5,39.5,30.20,ENE,68,0.4,1.6,57,0.00,,,0.00,WUHU216HW,2013-02-25 18:38:00,
2013-02-25 10:43:00,55.1,39.6,30.20,WNW,293,1.1,1.1,56,0.00,,,0.00,WUHU216HW,2013-02-25 18:43:00,
2013-02-25 10:48:00,55.4,39.9,30.19,SSW,203,1.1,1.1,56,0.00,,,0.00,WUHU216HW,2013-02-25 18:48:00,
2013-02-25 10:53:00,55.8,40.7,30.20,NW,315,2.0,2.0,57,0.00,,,0.00,WUHU216HW,2013-02-25 18:53:00,
2013-02-25 10:58:00,56.5,41.4,30.19,West,270,1.1,3.8,57,0.00,,,0.00,WUHU216HW,2013-02-25 18:58:00,
2013-02-25 11:03:00,57.1,41.9,30.19,NW,315,3.6,4.3,57,0.00,,,0.00,WUHU216HW,2013-02-25 19:03:00,
2013-02-25 11:08:00,57.6,42.9,30.19,WNW,293,2.2,4.3,58,0.00,,,0.00,WUHU216HW,2013-02-25 19:08:00,
2013-02-25 11:13:00,58.0,43.3,30.19,NNE,23,3.6,3.6,58,0.00,,,0.00,WUHU216HW,2013-02-25 19:13:00,
2013-02-25 11:18:00,58.3,43.6,30.19,WSW,248,2.5,4.5,58,0.00,,,0.00,WUHU216HW,2013-02-25 19:18:00,
2013-02-25 11:23:00,58.7,43.9,30.19,West,270,2.5,4.5,58,0.00,,,0.00,WUHU216HW,2013-02-25 19:23:00,
2013-02-25 11:28:00,59.0,43.7,30.19,WSW,248,1.1,3.4,57,0.00,,,0.00,WUHU216HW,2013-02-25 19:28:00,
2013-02-25 11:33:00,59.0,43.7,30.19,WSW,248,4.0,5.6,57,0.00,,,0.00,WUHU216HW,2013-02-25 19:33:00,
2013-02-25 11:38:00,59.2,43.9,30.19,West,270,2.7,5.6,57,0.00,,,0.00,WUHU216HW,2013-02-25 19:38:00,
2013-02-25 11:43:00,59.4,44.1,30.18,WSW,248,2.5,5.1,57,0.00,,,0.00,WUHU216HW,2013-02-25 19:43:00,
2013-02-25 11:48:00,59.6,43.8,30.18,WSW,248,3.4,5.1,56,0.00,,,0.00,WUHU216HW,2013-02-25 19:48:00,
2013-02-25 11:53:00,59.8,44.5,30.18,NW,315,5.1,6.0,57,0.00,,,0.00,WUHU216HW,2013-02-25 19:53:00,
2013-02-25 11:58:00,59.9,44.2,30.18,SW,225,4.7,6.0,56,0.00,,,0.00,WUHU216HW,2013-02-25 19:58:00,
2013-02-25 12:04:00,60.1,44.4,30.18,SW,225,4.5,5.6,56,0.00,,,0.00,WUHU216HW,2013-02-25 20:04:00,
2013-02-25 12:09:00,60.5,44.2,30.18,SW,225,6.7,6.7,55,0.00,,,0.00,WUHU216HW,2013-02-25 20:09:00,
2013-02-25 12:14:00,60.7,44.4,30.18,West,270,3.8,6.7,55,0.00,,,0.00,WUHU216HW,2013-02-25 20:14:00,
2013-02-25 12:19:00,60.8,44.6,30.17,SSW,203,4.0,6.3,55,0.00,,,0.00,WUHU216HW,2013-02-25 20:19:00,
2013-02-25 12:24:00,61.2,44.4,30.17,West,270,4.3,6.3,54,0.00,,,0.00,WUHU216HW,2013-02-25 20:24:00,
2013-02-25 12:29:00,61.4,44.6,30.17,NNE,23,1.6,4.3,54,0.00,,,0.00,WUHU216HW,2013-02-25 20:29:00,
2013-02-25 12:34:00,61.6,44.7,30.17,WSW,248,1.1,5.4,54,0.00,,,0.00,WUHU216HW,2013-02-25 20:34:00,
2013-02-25 12:39:00,61.9,44.6,30.17,WNW,293,6.7,6.7,53,0.00,,,0.00,WUHU216HW,2013-02-25 20:39:00,
2013-02-25 12:44:00,62.1,45.2,30.17,WSW,248,5.6,6.7,54,0.00,,,0.00,WUHU216HW,2013-02-25 20:44:00,
2013-02-25 12:49:00,62.3,45.4,30.16,WSW,248,4.7,5.6,54,0.00,,,0.00,WUHU216HW,2013-02-25 20:49:00,
2013-02-25 12:54:00,62.6,45.7,30.16,WSW,248,4.7,4.7,54,0.00,,,0.00,WUHU216HW,2013-02-25 20:54:00,
2013-02-25 12:59:00,62.8,44.9,30.16,WSW,248,2.0,6.7,52,0.00,,,0.00,WUHU216HW,2013-02-25 20:59:00,
2013-02-25 13:04:00,62.6,44.7,30.15,SSW,203,6.3,7.6,52,0.00,,,0.00,WUHU216HW,2013-02-25 21:04:00,
2013-02-25 13:09:00,62.5,45.0,30.15,West,270,2.0,7.6,53,0.00,,,0.00,WUHU216HW,2013-02-25 21:09:00,
2013-02-25 13:15:00,63.0,45.0,30.15,SSW,203,1.8,6.9,52,0.00,,,0.00,WUHU216HW,2013-02-25 21:15:00,
2013-02-25 13:20:00,63.4,43.2,30.15,NNW,338,1.1,6.9,48,0.00,,,0.00,WUHU216HW,2013-02-25 21:20:00,
2013-02-25 13:25:00,63.7,43.0,30.15,NW,315,2.9,5.6,47,0.00,,,0.00,WUHU216HW,2013-02-25 21:25:00,
2013-02-25 13:30:00,64.1,42.1,30.15,WNW,293,4.7,4.9,45,0.00,,,0.00,WUHU216HW,2013-02-25 21:30:00,
2013-02-25 13:35:00,64.3,42.3,30.15,WNW,293,1.6,6.9,45,0.00,,,0.00,WUHU216HW,2013-02-25 21:35:00,
2013-02-25 13:40:00,64.1,42.1,30.15,NW,315,1.1,6.9,45,0.00,,,0.00,WUHU216HW,2013-02-25 21:40:00,
2013-02-25 13:45:00,64.4,43.0,30.15,West,270,3.4,3.4,46,0.00,,,0.00,WUHU216HW,2013-02-25 21:45:00,
2013-02-25 13:50:00,64.8,41.7,30.15,NW,315,6.9,6.9,43,0.00,,,0.00,WUHU216HW,2013-02-25 21:50:00,
2013-02-25 13:55:00,65.2,42.0,30.15,WNW,293,6.5,6.9,43,0.00,,,0.00,WUHU216HW,2013-02-25 21:55:00,
2013-02-25 14:00:00,65.2,42.0,30.15,SE,135,2.9,6.5,43,0.00,,,0.00,WUHU216HW,2013-02-25 22:00:00,
2013-02-25 14:05:00,65.0,41.2,30.15,West,270,6.7,6.7,42,0.00,,,0.00,WUHU216HW,2013-02-25 22:05:00,
2013-02-25 14:10:00,64.8,41.0,30.15,NW,315,1.8,7.8,42,0.00,,,0.00,WUHU216HW,2013-02-25 22:10:00,
2013-02-25 14:15:00,65.0,41.2,30.15,South,180,1.1,7.8,42,0.00,,,0.00,WUHU216HW,2013-02-25 22:15:00,
2013-02-25 14:20:00,65.2,40.9,30.16,NW,315,6.7,6.7,41,0.00,,,0.00,WUHU216HW,2013-02-25 22:20:00,
2013-02-25 14:25:00,65.2,40.9,30.15,WNW,293,1.1,6.7,41,0.00,,,0.00,WUHU216HW,2013-02-25 22:25:00,
2013-02-25 14:30:00,65.2,40.9,30.15,West,270,1.1,6.0,41,0.00,,,0.00,WUHU216HW,2013-02-25 22:30:00,
2013-02-25 14:36:00,64.8,41.0,30.15,NNW,338,1.3,5.1,42,0.00,,,0.00,WUHU216HW,2013-02-25 22:36:00,
2013-02-25 14:41:00,64.8,41.0,30.15,NNE,23,6.5,6.5,42,0.00,,,0.00,WUHU216HW,2013-02-25 22:41:00,
2013-02-25 14:46:00,64.8,40.5,30.15,NNW,338,4.3,8.5,41,0.00,,,0.00,WUHU216HW,2013-02-25 22:46:00,
2013-02-25 14:51:00,64.8,41.7,30.14,North,0,3.1,8.5,43,0.00,,,0.00,WUHU216HW,2013-02-25 22:51:00,
2013-02-25 14:56:00,65.0,41.9,30.14,NNW,338,1.1,4.7,43,0.00,,,0.00,WUHU216HW,2013-02-25 22:56:00,
2013-02-25 15:01:00,65.2,40.2,30.15,WNW,293,1.8,5.1,40,0.00,,,0.00,WUHU216HW,2013-02-25 23:01:00,
2013-02-25 15:06:00,65.2,41.4,30.15,West,270,0.4,5.6,42,0.00,,,0.00,WUHU216HW,2013-02-25 23:06:00,
2013-02-25 15:11:00,65.2,41.4,30.14,WNW,293,5.4,5.6,42,0.00,,,0.00,WUHU216HW,2013-02-25 23:11:00,
2013-02-25 15:16:00,65.0,41.2,30.14,WNW,293,1.3,5.4,42,0.00,,,0.00,WUHU216HW,2013-02-25 23:16:00,
2013-02-25 15:21:00,65.0,41.2,30.14,West,270,4.7,5.4,42,0.00,,,0.00,WUHU216HW,2013-02-25 23:21:00,
2013-02-25 15:26:00,65.2,42.0,30.14,NW,315,2.5,4.7,43,0.00,,,0.00,WUHU216HW,2013-02-25 23:26:00,
2013-02-25 15:31:00,65.2,40.9,30.14,North,0,3.1,6.0,41,0.00,,,0.00,WUHU216HW,2013-02-25 23:31:00,
2013-02-25 15:37:00,65.0,40.7,30.14,WNW,293,4.7,6.0,41,0.00,,,0.00,WUHU216HW,2013-02-25 23:37:00,
2013-02-25 15:42:00,65.0,40.7,30.14,NNE,23,2.0,4.7,41,0.00,,,0.00,WUHU216HW,2013-02-25 23:42:00,
2013-02-25 15:47:00,64.8,41.0,30.14,North,0,1.6,4.5,42,0.00,,,0.00,WUHU216HW,2013-02-25 23:47:00,
2013-02-25 15:52:00,64.8,41.7,30.13,SW,225,0.4,4.5,43,0.00,,,0.00,WUHU216HW,2013-02-25 23:52:00,
2013-02-25 15:57:00,64.4,40.8,30.13,NNE,23,1.3,4.3,42,0.00,,,0.00,WUHU216HW,2013-02-25 23:57:00,
2013-02-25 16:02:00,64.1,41.1,30.13,NNW,338,1.8,4.3,43,0.00,,,0.00,WUHU216HW,2013-02-26 00:02:00,
2013-02-25 16:07:00,64.1,41.1,30.13,WNW,293,1.1,2.9,43,0.00,,,0.00,WUHU216HW,2013-02-26 00:07:00,
2013-02-25 16:12:00,63.7,40.7,30.13,North,0,3.8,3.8,43,0.00,,,0.00,WUHU216HW,2013-02-26 00:12:00,
2013-02-25 16:17:00,63.7,41.2,30.13,NNE,23,0.9,3.8,44,0.00,,,0.00,WUHU216HW,2013-02-26 00:17:00,
2013-02-25 16:22:00,63.5,41.1,30.13,NW,315,3.6,4.3,44,0.00,,,0.00,WUHU216HW,2013-02-26 00:22:00,
2013-02-25 16:27:00,63.4,41.0,30.13,NNE,23,2.9,4.3,44,0.00,,,0.00,WUHU216HW,2013-02-26 00:27:00,
2013-02-25 16:32:00,63.2,40.8,30.13,WNW,293,0.9,7.6,44,0.00,,,0.00,WUHU216HW,2013-02-26 00:32:00,
2013-02-25 16:37:00,63.0,40.6,30.13,NNW,338,1.6,7.6,44,0.00,,,0.00,WUHU216HW,2013-02-26 00:37:00,
2013-02-25 16:42:00,62.6,40.9,30.12,NW,315,2.5,5.4,45,0.00,,,0.00,WUHU216HW,2013-02-26 00:42:00,
2013-02-25 16:47:00,62.5,40.7,30.12,NW,315,3.4,5.4,45,0.00,,,0.00,WUHU216HW,2013-02-26 00:47:00,
2013-02-25 16:52:00,62.3,41.1,30.12,West,270,1.8,4.9,46,0.00,,,0.00,WUHU216HW,2013-02-26 00:52:00,
2013-02-25 16:57:00,61.9,40.2,30.12,NW,315,2.0,5.1,45,0.00,,,0.00,WUHU216HW,2013-02-26 00:57:00,
2013-02-25 17:02:00,61.9,40.2,30.12,WNW,293,4.9,5.4,45,0.00,,,0.00,WUHU216HW,2013-02-26 01:02:00,
2013-02-25 17:07:00,61.7,40.1,30.12,NW,315,0.7,5.4,45,0.00,,,0.00,WUHU216HW,2013-02-26 01:07:00,
2013-02-25 17:13:00,61.6,40.5,30.12,NNW,338,2.7,5.8,46,0.00,,,0.00,WUHU216HW,2013-02-26 01:13:00,
2013-02-25 17:18:00,61.2,40.1,30.12,WNW,293,3.6,5.8,46,0.00,,,0.00,WUHU216HW,2013-02-26 01:18:00,
2013-02-25 17:23:00,60.8,39.2,30.12,WNW,293,1.6,4.7,45,0.00,,,0.00,WUHU216HW,2013-02-26 01:23:00,
2013-02-25 17:28:00,60.8,39.2,30.12,NW,315,3.6,4.0,45,0.00,,,0.00,WUHU216HW,2013-02-26 01:28:00,
2013-02-25 17:33:00,60.5,38.9,30.12,West,270,1.3,4.3,45,0.00,,,0.00,WUHU216HW,2013-02-26 01:33:00,
2013-02-25 17:38:00,60.1,38.6,30.12,NW,315,3.6,4.7,45,0.00,,,0.00,WUHU216HW,2013-02-26 01:38:00,
2013-02-25 17:43:00,59.9,38.4,30.12,WNW,293,0.7,4.7,45,0.00,,,0.00,WUHU216HW,2013-02-26 01:43:00,
2013-02-25 17:48:00,59.4,38.5,30.12,WSW,248,0.9,2.5,46,0.00,,,0.00,WUHU216HW,2013-02-26 01:48:00,
2013-02-25 17:53:00,59.0,39.3,30.12,NW,315,1.1,3.4,48,0.00,,,0.00,WUHU216HW,2013-02-26 01:53:00,
2013-02-25 17:58:00,58.7,39.6,30.12,NW,315,0.0,3.4,49,0.00,,,0.00,WUHU216HW,2013-02-26 01:58:00,
2013-02-25 18:03:00,58.1,39.2,30.12,NW,315,0.9,1.8,49,0.00,,,0.00,WUHU216HW,2013-02-26 02:03:00,
2013-02-25 18:08:00,57.6,39.7,30.12,WNW,293,0.4,1.6,51,0.00,,,0.00,WUHU216HW,2013-02-26 02:08:00,
2013-02-25 18:13:00,57.1,39.6,30.12,NNW,338,0.0,1.6,52,0.00,,,0.00,WUHU216HW,2013-02-26 02:13:00,
2013-02-25 18:18:00,56.7,40.2,30.12,NNE,23,0.2,0.9,54,0.00,,,0.00,WUHU216HW,2013-02-26 02:18:00,
2013-02-25 18:23:00,56.3,39.9,30.13,WNW,293,0.0,0.9,54,0.00,,,0.00,WUHU216HW,2013-02-26 02:23:00,
2013-02-25 18:28:00,55.8,39.8,30.13,NNW,338,0.4,1.1,55,0.00,,,0.00,WUHU216HW,2013-02-26 02:28:00,
2013-02-25 18:33:00,55.4,39.9,30.13,North,0,0.0,1.1,56,0.00,,,0.00,WUHU216HW,2013-02-26 02:33:00,
2013-02-25 18:38:00,55.1,40.1,30.13,North,0,0.0,0.4,57,0.00,,,0.00,WUHU216HW,2013-02-26 02:38:00,
2013-02-25 18:43:00,54.5,40.5,30.13,NW,315,0.0,0.4,59,0.00,,,0.00,WUHU216HW,2013-02-26 02:43:00,
2013-02-25 18:49:00,54.2,40.6,30.14,NW,315,0.0,0.4,60,0.00,,,0.00,WUHU216HW,2013-02-26 02:49:00,
2013-02-25 18:54:00,53.8,40.7,30.13,North,0,0.2,0.2,61,0.00,,,0.00,WUHU216HW,2013-02-26 02:54:00,
2013-02-25 18:59:00,53.5,40.8,30.14,WNW,293,0.2,0.2,62,0.00,,,0.00,WUHU216HW,2013-02-26 02:59:00,
2013-02-25 19:04:00,53.3,41.0,30.14,NNE,23,0.0,0.2,63,0.00,,,0.00,WUHU216HW,2013-02-26 03:04:00,
2013-02-25 19:09:00,52.9,41.4,30.14,NNE,23,0.0,0.2,65,0.00,,,0.00,WUHU216HW,2013-02-26 03:09:00,
2013-02-25 19:14:00,52.7,42.1,30.15,NW,315,1.1,1.1,67,0.00,,,0.00,WUHU216HW,2013-02-26 03:14:00,
2013-02-25 19:19:00,52.6,42.0,30.15,NW,315,0.0,1.1,67,0.00,,,0.00,WUHU216HW,2013-02-26 03:19:00,
2013-02-25 19:24:00,52.2,41.9,30.15,NNW,338,0.4,0.9,68,0.00,,,0.00,WUHU216HW,2013-02-26 03:24:00,
2013-02-25 19:29:00,52.0,42.2,30.15,NW,315,0.0,0.9,69,0.00,,,0.00,WUHU216HW,2013-02-26 03:29:00,
2013-02-25 19:34:00,51.7,41.5,30.15,North,0,0.2,0.7,68,0.00,,,0.00,WUHU216HW,2013-02-26 03:34:00,
2013-02-25 19:39:00,51.5,41.3,30.15,WSW,248,0.0,0.7,68,0.00,,,0.00,WUHU216HW,2013-02-26 03:39:00,
2013-02-25 19:44:00,51.1,41.3,30.15,WSW,248,0.0,0.4,69,0.00,,,0.00,WUHU216HW,2013-02-26 03:44:00,
2013-02-25 19:49:00,50.8,41.1,30.15,SE,135,0.0,0.0,69,0.00,,,0.00,WUHU216HW,2013-02-26 03:49:00,
2013-02-25 19:54:00,50.4,41.0,30.15,East,90,0.4,0.4,70,0.00,,,0.00,WUHU216HW,2013-02-26 03:54:00,
2013-02-25 19:59:00,50.0,40.7,30.15,NNE,23,0.4,0.4,70,0.00,,,0.00,WUHU216HW,2013-02-26 03:59:00,
2013-02-25 20:04:00,49.7,40.3,30.15,NNE,23,0.7,0.7,70,0.00,,,0.00,WUHU216HW,2013-02-26 04:04:00,
2013-02-25 20:09:00,49.5,40.5,30.15,NNE,23,0.2,0.7,71,0.00,,,0.00,WUHU216HW,2013-02-26 04:09:00,
2013-02-25 20:14:00,49.1,40.2,30.15,NE,45,0.7,0.7,71,0.00,,,0.00,WUHU216HW,2013-02-26 04:14:00,
2013-02-25 20:20:00,48.8,39.8,30.15,NE,45,0.0,0.7,71,0.00,,,0.00,WUHU216HW,2013-02-26 04:20:00,
2013-02-25 20:25:00,48.6,39.6,30.15,ENE,68,0.0,0.4,71,0.00,,,0.00,WUHU216HW,2013-02-26 04:25:00,
2013-02-25 20:30:00,48.2,39.6,30.15,SE,135,0.0,0.2,72,0.00,,,0.00,WUHU216HW,2013-02-26 04:30:00,
2013-02-25 20:35:00,47.9,39.2,30.15,NE,45,0.4,0.9,72,0.00,,,0.00,WUHU216HW,2013-02-26 04:35:00,
2013-02-25 20:40:00,47.5,38.9,30.15,NE,45,0.0,0.9,72,0.00,,,0.00,WUHU216HW,2013-02-26 04:40:00,
2013-02-25 20:45:00,47.2,39.0,30.15,ESE,113,0.4,0.7,73,0.00,,,0.00,WUHU216HW,2013-02-26 04:45:00,
2013-02-25 20:50:00,46.8,38.3,30.15,NE,45,0.4,0.7,72,0.00,,,0.00,WUHU216HW,2013-02-26 04:50:00,
2013-02-25 20:55:00,46.3,37.8,30.15,North,0,0.0,0.9,72,0.00,,,0.00,WUHU216HW,2013-02-26 04:55:00,
2013-02-25 21:00:00,46.1,37.9,30.15,NNE,23,0.4,0.9,73,0.00,,,0.00,WUHU216HW,2013-02-26 05:00:00,
2013-02-25 21:01:00,46.1,37.9,30.15,NNE,23,0.4,0.4,73,0.00,,,0.00,WUHU216HW,2013-02-26 05:01:00,
2013-02-25 21:06:00,45.7,37.9,30.15,East,90,0.4,0.4,74,0.00,,,0.00,WUHU216HW,2013-02-26 05:06:00,
2013-02-25 21:11:00,45.4,37.5,30.16,NE,45,0.0,0.4,74,0.00,,,0.00,WUHU216HW,2013-02-26 05:11:00,
2013-02-25 21:16:00,45.0,37.2,30.16,NE,45,0.0,0.2,74,0.00,,,0.00,WUHU216HW,2013-02-26 05:16:00,
2013-02-25 21:21:00,44.6,36.8,30.16,NE,45,0.2,0.2,74,0.00,,,0.00,WUHU216HW,2013-02-26 05:21:00,
2013-02-25 21:26:00,44.5,36.6,30.16,ENE,68,0.0,0.4,74,0.00,,,0.00,WUHU216HW,2013-02-26 05:26:00,
2013-02-25 21:31:00,44.3,36.5,30.16,East,90,0.0,0.7,74,0.00,,,0.00,WUHU216HW,2013-02-26 05:31:00,
2013-02-25 21:36:00,43.9,36.2,30.16,East,90,0.0,0.7,74,0.00,,,0.00,WUHU216HW,2013-02-26 05:36:00,
2013-02-25 21:41:00,43.7,36.0,30.17,ENE,68,0.0,0.4,74,0.00,,,0.00,WUHU216HW,2013-02-26 05:41:00,
2013-02-25 21:46:00,43.6,36.2,30.16,ENE,68,0.0,0.4,75,0.00,,,0.00,WUHU216HW,2013-02-26 05:46:00,
2013-02-25 21:51:00,43.2,35.8,30.16,NE,45,0.0,0.7,75,0.00,,,0.00,WUHU216HW,2013-02-26 05:51:00,
2013-02-25 21:56:00,43.0,36.0,30.16,NE,45,0.0,0.7,76,0.00,,,0.00,WUHU216HW,2013-02-26 05:56:00,
2013-02-25 22:01:00,42.8,36.1,30.16,ESE,113,0.2,0.7,77,0.00,,,0.00,WUHU216HW,2013-02-26 06:01:00,
2013-02-25 22:06:00,42.7,35.9,30.16,East,90,0.2,0.7,77,0.00,,,0.00,WUHU216HW,2013-02-26 06:06:00,
2013-02-25 22:11:00,42.3,35.9,30.17,East,90,0.2,0.4,78,0.00,,,0.00,WUHU216HW,2013-02-26 06:11:00,
2013-02-25 22:16:00,42.1,35.7,30.17,East,90,0.0,0.2,78,0.00,,,0.00,WUHU216HW,2013-02-26 06:16:00,
2013-02-25 22:21:00,41.9,35.2,30.17,East,90,0.0,0.2,77,0.00,,,0.00,WUHU216HW,2013-02-26 06:21:00,
2013-02-25 22:26:00,41.8,35.4,30.17,WSW,248,0.0,0.0,78,0.00,,,0.00,WUHU216HW,2013-02-26 06:26:00,
2013-02-25 22:31:00,41.4,35.0,30.17,ENE,68,0.4,0.4,78,0.00,,,0.00,WUHU216HW,2013-02-26 06:31:00,
2013-02-25 22:36:00,41.4,35.0,30.16,NE,45,0.0,0.4,78,0.00,,,0.00,WUHU216HW,2013-02-26 06:36:00,
2013-02-25 22:41:00,41.2,34.8,30.16,NE,45,0.4,0.4,78,0.00,,,0.00,WUHU216HW,2013-02-26 06:41:00,
2013-02-25 22:46:00,41.2,35.1,30.16,ENE,68,0.2,0.4,79,0.00,,,0.00,WUHU216HW,2013-02-26 06:46:00,
2013-02-25 22:52:00,41.0,34.9,30.17,NE,45,0.2,0.4,79,0.00,,,0.00,WUHU216HW,2013-02-26 06:52:00,
2013-02-25 22:57:00,40.9,34.8,30.17,NE,45,0.0,0.2,79,0.00,,,0.00,WUHU216HW,2013-02-26 06:57:00,
2013-02-25 23:02:00,40.7,34.7,30.17,NE,45,0.0,0.0,79,0.00,,,0.00,WUHU216HW,2013-02-26 07:02:00,
2013-02-25 23:07:00,40.5,34.8,30.16,NE,45,0.0,0.0,80,0.00,,,0.00,WUHU216HW,2013-02-26 07:07:00,
2013-02-25 23:12:00,40.3,34.7,30.16,NE,45,0.0,0.0,80,0.00,,,0.00,WUHU216HW,2013-02-26 07:12:00,
2013-02-25 23:17:00,40.1,34.5,30.17,ENE,68,0.2,0.2,80,0.00,,,0.00,WUHU216HW,2013-02-26 07:17:00,
2013-02-25 23:22:00,40.0,34.3,30.17,NE,45,0.0,0.2,80,0.00,,,0.00,WUHU216HW,2013-02-26 07:22:00,
2013-02-25 23:27:00,39.8,34.1,30.16,WNW,293,0.0,0.2,80,0.00,,,0.00,WUHU216HW,2013-02-26 07:27:00,
2013-02-25 23:32:00,39.6,34.0,30.17,ENE,68,0.4,0.4,80,0.00,,,0.00,WUHU216HW,2013-02-26 07:32:00,
2013-02-25 23:37:00,39.2,33.7,30.17,North,0,0.2,0.9,80,0.00,,,0.00,WUHU216HW,2013-02-26 07:37:00,
2013-02-25 23:42:00,39.2,33.7,30.16,North,0,0.0,0.9,80,0.00,,,0.00,WUHU216HW,2013-02-26 07:42:00,
2013-02-25 23:47:00,39.2,33.7,30.16,ENE,68,0.4,0.4,80,0.00,,,0.00,WUHU216HW,2013-02-26 07:47:00,
2013-02-25 23:52:00,39.1,33.5,30.17,NE,45,0.4,0.4,80,0.00,,,0.00,WUHU216HW,2013-02-26 07:52:00,
2013-02-25 23:57:00,38.9,33.3,30.17,WNW,293,0.2,0.4,80,0.00,,,0.00,WUHU216HW,2013-02-26 07:57:00,